TimeCST,TemperatureF,Dew PointF,Humidity,Sea Level PressureIn,VisibilityMPH,Wind Direction,Wind SpeedMPH,Gust SpeedMPH,PrecipitationIn,Events,Conditions,WindDirDegrees,DateUTC
12:00 AM,26.6,17.6,69,30.18,10.0,NW,11.5,-,N/A,,Overcast,320,2012-11-28 06:00:00
12:53 AM,24.1,15.1,69,30.23,10.0,NW,9.2,-,N/A,,Overcast,310,2012-11-28 06:53:00
1:53 AM,24.1,17.1,75,30.25,10.0,NW,5.8,-,N/A,,Overcast,310,2012-11-28 07:53:00
2:28 AM,24.8,15.8,69,30.22,10.0,Variable,3.5,-,N/A,,Overcast,0,2012-11-28 08:28:00
2:53 AM,23.0,16.0,74,30.27,10.0,WNW,4.6,-,0.00,,Overcast,300,2012-11-28 08:53:00
3:53 AM,21.9,15.1,75,30.29,10.0,NNW,10.4,-,N/A,,Overcast,330,2012-11-28 09:53:00
4:53 AM,21.0,14.0,74,30.30,8.0,NW,6.9,-,0.00,Snow,Light Snow,320,2012-11-28 10:53:00
5:53 AM,19.9,12.9,74,30.32,10.0,WNW,5.8,-,0.00,,Overcast,300,2012-11-28 11:53:00
6:53 AM,19.9,14.0,78,30.33,8.0,NW,3.5,-,0.00,Snow,Light Snow,310,2012-11-28 12:53:00
7:53 AM,19.9,12.0,71,30.34,10.0,WNW,3.5,-,0.00,,Overcast,300,2012-11-28 13:53:00
8:53 AM,19.9,12.9,74,30.34,10.0,WSW,8.1,-,0.00,,Overcast,250,2012-11-28 14:53:00
9:53 AM,21.0,10.9,65,30.35,10.0,WSW,10.4,-,N/A,,Overcast,250,2012-11-28 15:53:00
10:11 AM,19.4,10.4,68,30.30,10.0,West,11.5,-,N/A,,Scattered Clouds,260,2012-11-28 16:11:00
10:32 AM,19.4,10.4,68,30.29,10.0,WSW,11.5,-,N/A,,Mostly Cloudy,250,2012-11-28 16:32:00
10:53 AM,21.0,12.0,68,30.33,10.0,West,10.4,-,N/A,,Mostly Cloudy,270,2012-11-28 16:53:00
11:53 AM,21.9,12.9,68,30.30,10.0,WSW,12.7,-,N/A,,Mostly Cloudy,240,2012-11-28 17:53:00
12:02 PM,21.2,12.2,68,30.25,10.0,SW,10.4,-,N/A,,Scattered Clouds,230,2012-11-28 18:02:00
12:53 PM,24.1,14.0,65,30.27,10.0,SW,10.4,-,N/A,,Partly Cloudy,230,2012-11-28 18:53:00
1:53 PM,25.0,15.1,66,30.24,10.0,SW,12.7,-,N/A,,Clear,230,2012-11-28 19:53:00
2:53 PM,25.0,15.1,66,30.21,10.0,SW,8.1,-,N/A,,Clear,220,2012-11-28 20:53:00
3:53 PM,24.1,15.1,69,30.19,10.0,SW,9.2,-,N/A,,Clear,220,2012-11-28 21:53:00
4:53 PM,23.0,15.1,72,30.18,10.0,SSW,5.8,-,N/A,,Clear,210,2012-11-28 22:53:00
5:53 PM,23.0,16.0,74,30.19,10.0,SSW,8.1,-,N/A,,Clear,210,2012-11-28 23:53:00
6:53 PM,24.1,17.1,75,30.16,10.0,SW,8.1,-,N/A,,Clear,220,2012-11-29 00:53:00
7:53 PM,26.1,19.0,75,30.14,10.0,SW,9.2,-,N/A,,Mostly Cloudy,220,2012-11-29 01:53:00
8:53 PM,28.0,19.9,72,30.14,10.0,WSW,9.2,-,N/A,,Clear,240,2012-11-29 02:53:00
9:53 PM,28.0,19.9,72,30.16,10.0,WSW,6.9,-,N/A,,Mostly Cloudy,240,2012-11-29 03:53:00
10:53 PM,28.0,19.9,72,30.15,10.0,SW,8.1,-,N/A,,Clear,230,2012-11-29 04:53:00
11:53 PM,26.1,19.9,78,30.16,10.0,SW,3.5,-,N/A,,Clear,230,2012-11-29 05:53:00